This is the latest recevied weather packets stored in our database for station/object KO4APQ. If no packets are shown the sender has not sent any weather packets the latest 10 day(s).
| Time | Temp. | Humidity | Pressure | Rain* | Wind** | Luminosity | Snow |
|---|---|---|---|---|---|---|---|
| 1778151890 | 17.22° C | 98% | 1011.1 hPa | 4.32 mm | - | 2 W/m² | - |
| 1778151587 | 17.22° C | 98% | 1011.2 hPa | 3.05 mm | - | 1 W/m² | - |
| 1778151284 | 17.22° C | 98% | 1011.5 hPa | 3.05 mm | - | 1 W/m² | - |
| 1778150980 | 17.22° C | 98% | 1011.4 hPa | 6.1 mm | - | 1 W/m² | - |
| 1778150678 | 17.22° C | 98% | 1011.4 hPa | 9.65 mm | - | 1 W/m² | - |
| 1778150373 | 17.22° C | 98% | 1011.4 hPa | 4.32 mm | - | 0 W/m² | - |
| 1778150070 | 17.22° C | 98% | 1011.1 hPa | 1.27 mm | - | 0 W/m² | - |
| 1778149766 | 17.22° C | 98% | 1011.1 hPa | 1.78 mm | - | 0 W/m² | - |
| 1778149463 | 17.22° C | 98% | 1011.1 hPa | 1.78 mm | - | 0 W/m² | - |
| 1778149159 | 17.22° C | 97% | 1011 hPa | 0 mm | - | 0 W/m² | - |
| 1778148854 | 17.22° C | 97% | 1011 hPa | 0 mm | - | 0 W/m² | - |
| 1778148551 | 17.22° C | 98% | 1011.1 hPa | 0 mm | - | 0 W/m² | - |
| 1778148249 | 17.22° C | 97% | 1010.9 hPa | 0 mm | - | 0 W/m² | - |
| 1778147947 | 17.22° C | 97% | 1011.1 hPa | 0 mm | - | 0 W/m² | - |
| 1778147643 | 17.22° C | 97% | 1011.2 hPa | 0 mm | - | 0 W/m² | - |
| 1778147341 | 17.22° C | 97% | 1011.1 hPa | 1.27 mm | - | 0 W/m² | - |
| 1778147037 | 17.22° C | 97% | 1011.2 hPa | 3.05 mm | - | 0 W/m² | - |
| 1778146734 | 17.22° C | 97% | 1011.1 hPa | 3.05 mm | - | 0 W/m² | - |
| 1778146432 | 17.22° C | 97% | 1011.3 hPa | 1.78 mm | - | 0 W/m² | - |
| 1778146130 | 17.22° C | 97% | 1011.5 hPa | 1.78 mm | - | 0 W/m² | - |
| 1778145826 | 17.22° C | 97% | 1011.7 hPa | 0 mm | - | 0 W/m² | - |
| 1778145523 | 17.22° C | 97% | 1011.5 hPa | 0 mm | - | 0 W/m² | - |
| 1778145219 | 17.22° C | 97% | 1011.3 hPa | 0 mm | - | 0 W/m² | - |
| 1778144915 | 17.22° C | 97% | 1011.3 hPa | 0 mm | - | 0 W/m² | - |
| 1778144611 | 17.22° C | 97% | 1011.2 hPa | 0 mm | - | 0 W/m² | - |
* Rain latest hour (hover to see other rain measurements)
** Current wind speed in m/s (hover to see current wind gust speed)